sat.trackr.live / text

‹ back to catalog

MUOS-2

NORAD 39206 · 2013-036A

PAYLOAD ACTIVE UNKNOWN

§ Identity

Operator
Country
US
Launch date
2013-07-19
Launch site
AFETR
Launch vehicle
Mass (kg)
RCS (m²)
23.11

Purposes: comms

External: N2YO · Heavens-Above · Gunter

§ Orbital elements

Epoch: 2026-05-24T21:43:09.465024Z

Period
1,436.13 min
Inclination
4.9498°
Eccentricity
0.0050225
Mean motion
1.00269215 rev/d
Perigee alt
35,575.5 km
Apogee alt
35,999.1 km
Semi-major
42,165.5 km
B*
0.0000e+0
RAAN
45.4947°
Arg perigee
178.6720°
Mean anomaly
156.1395°
Rev number
4,695

§ Raw data

MUOS-21 39206U 13036A   26144.90497066 -.00000016  00000+0  00000+0 0  99972 39206   4.9498  45.4947 0050225 178.6720 156.1395  1.00269215 46954

JSON: /api/v1/satellites/39206 · /tle

For live sub-satellite position, see the globe view (requires WebGL).

§ Visibility from observer

Set your observer location to see the next 7 days of passes ≥ 10°. The values pass through the URL so the page stays shareable.

No JS? Fill the form by hand. The geolocation button needs JavaScript.